EW4723 Weather Reports


time (UTC)temp
F
wind
direction
speed
knots
gust
knots
rain 1hr
in
rain 24hr
in
rain mn
in
humidity
%
barometer
mb
20260505052402 53 30 0.9 5.2 0.00 0.00 0.00 87 1009.8
20260505051904 53 348 0.0 4.3 0.00 0.00 0.00 87 1009.7
20260505051359 52 159 0.0 0.0 0.00 0.00 0.00 87 1009.6
20260505050900 53 158 0.0 0.0 0.00 0.00 0.00 86 1009.5
20260505050400 53 158 0.0 2.6 0.00 0.00 0.00 85 1009.5
20260505050203 53 158 0.0 2.6 0.00 0.00 0.00 85 1009.4
20260505041359 55 323 0.9 7.0 0.00 0.00 0.00 81 1009.1
20260505040901 55 30 0.9 7.0 0.00 0.00 0.00 81 1008.9
20260505040358 55 337 0.9 3.5 0.00 0.00 0.00 80 1008.9
20260505035857 55 355 0.9 3.5 0.00 0.00 0.00 80 1008.8
20260505035646 55 28 0.9 3.5 0.00 0.00 0.00 80 1008.8
20260505034857 56 9 0.9 5.2 0.00 0.00 0.00 79 1008.7
20260505034359 56 0 1.7 5.2 0.00 0.00 0.00 78 1008.7
20260505033859 56 17 0.9 7.8 0.00 0.00 0.00 78 1008.6
20260505033359 56 22 1.7 7.8 0.00 0.00 0.00 77 1008.5
20260505032857 56 17 2.6 7.0 0.00 0.00 0.00 77 1008.5
20260505032356 57 19 1.7 7.0 0.00 0.00 0.00 76 1008.4
20260505031858 57 309 1.7 6.1 0.00 0.00 0.00 76 1008.3
20260505031351 57 11 1.7 7.0 0.00 0.00 0.00 75 1008.2
20260505030852 57 5 1.7 7.0 0.00 0.00 0.00 75 1008.2
20260505030350 58 306 1.7 7.0 0.00 0.00 0.00 74 1008.2
20260505025851 58 312 1.7 6.1 0.00 0.00 0.00 73 1008.1
20260505025350 58 327 1.7 7.8 0.00 0.00 0.00 72 1008.1
20260505024849 58 349 1.7 9.6 0.00 0.00 0.00 72 1008.1
20260505024351 59 329 1.7 9.6 0.00 0.00 0.00 72 1008.1
20260505024228 59 293 1.7 12.2 0.00 0.00 0.00 71 1008.1
20260505023351 60 298 2.6 12.2 0.00 0.00 0.00 70 1008.1
20260505023142 60 9 2.6 9.6 0.00 0.00 0.00 69 1008.2
20260505022347 60 17 2.6 7.8 0.00 0.00 0.00 70 1008.2
20260505021845 60 335 2.6 7.8 0.00 0.00 0.00 69 1008.2
20260505021459 60 304 2.6 8.7 0.00 0.00 0.00 68 1008.4
20260505021435 60 309 2.6 8.7 0.00 0.00 0.00 68 1008.2
20260505020344 61 327 2.6 7.8 0.00 0.00 0.00 69 1008.4
20260505015843 61 323 2.6 7.8 0.00 0.00 0.00 68 1008.3
20260505015344 61 188 2.6 7.8 0.00 0.00 0.00 68 1008.5
20260505014837 61 282 2.6 7.8 0.00 0.00 0.00 68 1008.4
20260505014332 62 271 1.7 7.8 0.00 0.00 0.00 67 1008.5
20260505013826 62 25 1.7 11.3 0.00 0.00 0.00 66 1008.5
20260505013610 63 34 2.6 11.3 0.00 0.00 0.00 65 1008.6
20260505013102 63 23 1.7 9.6 0.00 0.00 0.00 63 1008.6
20260505012308 64 110 1.7 7.8 0.00 0.00 0.00 63 1008.6
20260505011803 64 20 1.7 7.8 0.00 0.00 0.00 63 1008.7
20260505011256 64 13 1.7 5.2 0.00 0.00 0.00 64 1008.9
20260505010750 64 338 1.7 7.0 0.00 0.00 0.00 63 1008.9
20260505010245 64 333 1.7 7.0 0.00 0.00 0.00 63 1008.9
20260505005748 65 24 1.7 7.0 0.00 0.00 0.00 63 1009.0
20260505005529 65 316 1.7 7.0 0.00 0.00 0.00 66 1008.9
20260505004726 64 345 0.9 6.1 0.00 0.00 0.00 65 1009.0
20260505004221 64 271 0.9 5.2 0.00 0.00 0.00 65 1008.9
20260505003715 64 261 1.7 5.2 0.00 0.00 0.00 67 1009.0
20260505003208 64 11 1.7 4.3 0.00 0.00 0.00 68 1009.1
20260505002702 63 259 2.6 5.2 0.00 0.00 0.00 67 1009.0
20260505002159 63 300 2.6 7.0 0.00 0.00 0.00 67 1009.0
20260505001956 64 297 2.6 7.8 0.00 0.00 0.00 66 1009.0
20260505001157 64 112 1.7 7.8 0.00 0.00 0.00 66 1009.0
20260505000659 65 309 1.7 3.5 0.00 0.00 0.00 64 1009.0
20260505000159 65 269 1.7 4.3 0.00 0.00 0.00 65 1009.0
20260504235656 65 0 1.7 5.2 0.00 0.00 0.00 64 1009.0
20260504235155 65 9 1.7 7.8 0.00 0.00 0.00 63 1009.0
20260504234657 65 301 1.7 7.8 0.00 0.00 0.00 63 1009.0
20260504234154 66 350 0.9 4.3 0.00 0.00 0.00 68 1009.0
20260504233651 66 265 0.9 5.2 0.00 0.00 0.00 66 1008.9
20260504233151 65 298 1.7 5.2 0.00 0.00 0.00 64 1008.9
20260504232652 65 281 1.7 6.1 0.00 0.00 0.00 65 1008.9
20260504232150 64 342 2.6 7.8 0.00 0.00 0.00 66 1009.0
20260504231647 64 338 2.6 7.8 0.00 0.00 0.00 65 1009.1
20260504231148 64 294 2.6 7.0 0.00 0.00 0.00 64 1009.0
20260504230649 63 276 2.6 8.7 0.00 0.00 0.00 65 1009.1
20260504230147 64 32 2.6 8.7 0.00 0.00 0.00 64 1009.2
20260504225948 65 345 2.6 7.8 0.00 0.00 0.00 63 1009.2
20260504225148 64 280 2.6 7.8 0.00 0.00 0.00 63 1009.3
20260504224646 65 333 2.6 7.8 0.00 0.00 0.00 62 1009.4
20260504224144 64 276 2.6 7.8 0.00 0.00 0.00 63 1009.3
20260504223645 64 26 2.6 7.0 0.00 0.00 0.00 62 1009.4
20260504223441 64 313 2.6 7.8 0.00 0.00 0.00 62 1009.3
20260504222645 66 38 1.7 7.8 0.00 0.00 0.00 60 1009.3
20260504222145 66 296 1.7 5.2 0.00 0.00 0.00 59 1009.5
20260504221944 66 265 2.6 7.8 0.00 0.00 0.00 60 1009.5
20260504221145 66 339 1.7 7.8 0.00 0.00 0.00 59 1009.6
20260504220937 66 288 1.7 7.0 0.00 0.00 0.00 58 1009.5
20260504220144 67 169 2.6 6.1 0.00 0.00 0.00 57 1009.4
20260504215643 67 275 1.7 6.1 0.00 0.00 0.00 56 1009.4
20260504215144 69 332 0.9 3.5 0.00 0.00 0.00 55 1009.4
20260504214641 68 305 0.9 7.0 0.00 0.00 0.00 54 1009.5
20260504214141 68 90 1.7 7.0 0.00 0.00 0.00 55 1009.6
20260504214010 67 297 1.7 6.1 0.00 0.00 0.00 56 1009.7
20260504213711 68 331 1.7 4.3 0.00 0.00 0.00 54 1009.6
20260504212639 66 245 2.6 6.1 0.00 0.00 0.00 55 1009.7
20260504212139 66 329 1.7 5.2 0.00 0.00 0.00 59 1009.8
20260504211640 66 10 1.7 6.1 0.00 0.00 0.00 55 1009.7
20260504211140 67 0 1.7 6.1 0.00 0.00 0.00 53 1009.7
20260504210640 68 304 0.9 5.2 0.00 0.00 0.00 59 1009.7
20260504210138 67 339 1.7 7.0 0.00 0.00 0.00 55 1009.8
20260504205640 67 355 1.7 7.0 0.00 0.00 0.00 54 1009.8
20260504205140 69 265 0.9 3.5 0.00 0.00 0.00 57 1009.8
20260504204639 71 267 0.9 3.5 0.00 0.00 0.00 54 1009.7
20260504204140 72 301 0.9 2.6 0.00 0.00 0.00 49 1009.7
20260504203639 73 35 1.7 6.1 0.00 0.00 0.00 51 1009.7
20260504203430 72 29 1.7 6.1 0.00 0.00 0.00 49 1009.7
20260504202638 71 267 2.6 7.0 0.00 0.00 0.00 47 1009.7
20260504202139 72 276 1.7 7.0 0.00 0.00 0.00 51 1009.7
20260504201638 73 271 0.9 5.2 0.00 0.00 0.00 47 1009.7
20260504201437 72 256 0.9 3.5 0.00 0.00 0.00 51 1009.7
20260504200639 72 28 0.9 3.5 0.00 0.00 0.00 53 1009.7
20260504200139 70 304 1.7 6.1 0.00 0.00 0.00 54 1009.7
20260504195638 70 294 0.9 6.1 0.00 0.00 0.00 49 1009.7
20260504195429 71 277 0.9 3.5 0.00 0.00 0.00 51 1009.7
20260504194636 72 313 0.9 1.7 0.00 0.00 0.00 49 1009.7
20260504194131 71 268 0.9 3.5 0.00 0.00 0.00 51 1009.7
20260504193630 71 267 0.9 5.2 0.00 0.00 0.00 52 1009.7
20260504193128 70 202 0.9 5.2 0.00 0.00 0.00 52 1009.7
20260504192628 70 22 0.9 5.2 0.00 0.00 0.00 57 1009.8
20260504192128 70 271 0.9 5.2 0.00 0.00 0.00 54 1009.8
20260504191627 69 286 0.9 3.5 0.00 0.00 0.00 54 1009.9
20260504191126 70 286 0.9 2.6 0.00 0.00 0.00 55 1009.8
20260504190624 71 323 0.9 2.6 0.00 0.00 0.00 54 1009.7
20260504190123 71 276 0.9 5.2 0.00 0.00 0.00 54 1009.7
20260504185623 71 277 0.9 5.2 0.00 0.00 0.00 54 1009.7
20260504185416 70 295 0.9 4.3 0.00 0.00 0.00 53 1009.7
20260504184918 69 267 0.9 4.3 0.00 0.00 0.00 52 1009.7
20260504184111 69 22 0.0 3.5 0.00 0.00 0.00 55 1009.8
20260504183851 69 299 0.9 3.5 0.00 0.00 0.00 54 1009.8
20260504183059 68 250 0.0 3.5 0.00 0.00 0.00 58 1009.8
20260504182554 67 321 0.0 1.7 0.00 0.00 0.00 56 1009.9
20260504182048 66 322 0.9 3.5 0.00 0.00 0.00 56 1009.9
20260504181541 66 312 0.9 3.5 0.00 0.00 0.00 57 1010.0
20260504181035 65 306 0.0 1.7 0.00 0.00 0.00 57 1010.0
20260504180824 66 310 0.0 0.9 0.00 0.00 0.00 58 1010.0
20260504180023 66 310 0.0 1.7 0.00 0.00 0.00 60 1010.0
20260504175517 66 330 0.0 1.7 0.00 0.00 0.00 63 1010.0
20260504175011 65 265 0.0 0.9 0.00 0.00 0.00 63 1009.9
20260504174505 65 265 0.0 2.6 0.00 0.00 0.00 62 1009.9
20260504173959 65 265 0.9 5.2 0.00 0.00 0.00 61 1009.8
20260504173452 65 254 0.9 5.2 0.00 0.00 0.00 59 1009.9
20260504172947 65 281 0.9 4.3 0.00 0.00 0.00 61 1009.8
20260504172441 64 329 1.7 4.3 0.00 0.00 0.00 60 1009.8
20260504171936 64 312 0.9 4.3 0.00 0.00 0.00 61 1009.8
20260504171429 63 344 0.9 5.2 0.00 0.00 0.00 62 1009.8
20260504170923 63 280 0.9 5.2 0.00 0.00 0.00 64 1009.8
20260504170417 63 287 0.0 3.5 0.00 0.00 0.00 64 1009.9
20260504160305 61 295 0.0 2.6 0.00 0.00 0.00 67 1009.7
20260504151017 59 273 0.9 2.6 0.00 0.00 0.00 68 1009.3
20260504150228 58 329 0.0 1.7 0.00 0.00 0.00 69 1009.4
20260504141218 53 304 0.0 1.7 0.00 0.00 0.00 79 1008.8
20260504140720 53 304 0.0 1.7 0.00 0.00 0.00 79 1008.8
20260504140214 54 304 0.0 2.6 0.00 0.00 0.00 79 1008.8
20260504130653 49 270 0.0 0.0 0.00 0.00 0.00 87 1008.5
20260504130444 49 270 0.0 0.0 0.00 0.00 0.00 88 1008.4
20260504120147 48 270 0.0 0.0 0.00 0.00 0.00 88 1008.5
20260504110629 49 270 0.0 0.0 0.00 0.00 0.00 86 1008.6
20260504110128 49 270 0.0 0.0 0.00 0.00 0.00 86 1008.6
20260504100526 50 270 0.0 0.0 0.00 0.00 0.00 82 1008.5
20260504100313 50 270 0.0 0.0 0.00 0.00 0.00 81 1008.5
20260504081847 53 270 0.0 0.0 0.00 0.00 0.00 71 1008.2
20260504081344 53 270 0.0 0.0 0.00 0.00 0.00 71 1008.2
20260504080841 54 270 0.0 0.0 0.00 0.00 0.00 70 1008.2
20260504080342 54 270 0.0 0.0 0.00 0.00 0.00 70 1008.2
20260504080131 54 270 0.0 0.0 0.00 0.00 0.00 70 1008.2
20260504070331 57 270 0.0 2.6 0.00 0.00 0.00 69 1008.3
20260504060220 58 316 0.9 3.5 0.00 0.00 0.00 59 1008.5